Tracking 19846 objects as of 19-Sep-2019
HD Live streaming from Space Station
objects crossing your sky now

HITCH HIKER 1

Track HITCH HIKER 1 now!
10-day predictions
HITCH HIKER 1 is classified as:


NORAD ID: 614
Int'l Code: 1963-025B
Perigee: 309.3 km
Apogee: 1,111.9 km
Inclination: 82.0 °
Period: 98.8 minutes
Semi major axis: 7081 km
RCS: 0.4472 m2 (medium)
Launch date: June 27, 1963
Source: United States (US)
Launch site: AIR FORCE WESTERN TEST RANGE (AFWTR)
aabbcc
Your satellite tracking list
Your tracking list is empty




NASA's NSSDC Master Catalog

Two Line Element Set (TLE):
1   614U 63025B   19261.94153166 +.00005092 -90590-6 +95432-4 0  9994
2   614 081.9813 016.7240 0566698 019.3892 342.7934 14.56827521557555
Source of the keplerian elements: AFSPC